Location: Unspecified
(0.0000°N, 0.0000°E)
Time: 21:45:01
(UTC+00:00)

Nadezhda 6 - Pass Details

Date: 11 June 2023
Orbit: 658 x 676 km, 97.8° (Epoch: 24 September)

Event Time Altitude Azimuth Distance (km) Brightness Sun altitude
Rises 19:01:43 0° 201° (SSW) 2,995 9.1 -14.2°
Reaches altitude 10° 19:04:53 10° 225° (SW) 2,083 8.5 -15.0°
Maximum altitude 19:07:20 14° 258° (WSW) 1,802 8.7 -15.5°
Drops below altitude 10° 19:09:47 10° 291° (WNW) 2,085 9.6 -16.1°
Sets 19:12:58 0° 315° (NW) 2,999 10.4 -16.8°
